Time,TemperatureF,DewpointF,PressureIn,WindDirection,WindDirectionDegrees,WindSpeedMPH,WindSpeedGustMPH,Humidity,HourlyPrecipIn,Conditions,Clouds,dailyrainin,SoftwareType,DateUTC
2013-01-21 00:02:00,-6.0,-9.0,-100.00,NW,310,28.0,34.0,87,0.00,,,0.00,,2013-01-21 06:02:00,
2013-01-21 00:12:00,-7.0,-9.0,-100.00,NW,315,24.0,31.0,89,0.00,,,0.00,,2013-01-21 06:12:00,
2013-01-21 00:23:00,-8.0,-11.0,-100.00,NW,315,22.0,30.0,84,0.00,,,0.00,,2013-01-21 06:23:00,
2013-01-21 00:33:00,-8.0,-13.0,-100.00,NW,315,22.0,29.0,80,0.00,,,0.00,,2013-01-21 06:33:00,
2013-01-21 00:43:00,-9.0,-13.0,-100.00,NW,315,22.0,30.0,83,0.00,,,0.00,,2013-01-21 06:43:00,
2013-01-21 00:52:00,-9.0,-13.0,-100.00,NW,310,22.0,30.0,78,0.00,,,0.00,,2013-01-21 06:52:00,
2013-01-21 01:03:00,-9.0,-13.0,-100.00,NW,310,24.0,30.0,80,0.00,,,0.00,,2013-01-21 07:03:00,
2013-01-21 01:12:00,-9.0,-15.0,-100.00,NW,305,25.0,31.0,79,0.00,,,0.00,,2013-01-21 07:12:00,
2013-01-21 01:22:00,-10.0,-17.0,-100.00,NW,305,23.0,29.0,74,0.00,,,0.00,,2013-01-21 07:22:00,
2013-01-21 01:33:00,-10.0,-17.0,-100.00,WNW,300,21.0,30.0,73,0.00,,,0.00,,2013-01-21 07:33:00,
2013-01-21 01:42:00,-10.0,-18.0,-100.00,NW,305,22.0,29.0,70,0.00,,,0.00,,2013-01-21 07:42:00,
2013-01-21 01:52:00,-10.0,-18.0,-100.00,WNW,300,17.0,27.0,68,0.00,,,0.00,,2013-01-21 07:52:00,
2013-01-21 02:02:00,-10.0,-18.0,-100.00,WNW,300,21.0,26.0,68,0.00,,,0.00,,2013-01-21 08:02:00,
2013-01-21 02:13:00,-11.0,-18.0,-100.00,WNW,300,20.0,26.0,67,0.00,,,0.00,,2013-01-21 08:13:00,
2013-01-21 02:22:00,-11.0,-18.0,-100.00,WNW,300,17.0,24.0,67,0.00,,,0.00,,2013-01-21 08:22:00,
2013-01-21 02:32:00,-11.0,-18.0,-100.00,WNW,285,16.0,24.0,67,0.00,,,0.00,,2013-01-21 08:32:00,
2013-01-21 02:42:00,-11.0,-18.0,-100.00,WNW,290,14.0,20.0,69,0.00,,,0.00,,2013-01-21 08:42:00,
2013-01-21 02:53:00,-11.0,-18.0,-100.00,WNW,290,14.0,19.0,69,0.00,,,0.00,,2013-01-21 08:53:00,
2013-01-21 03:02:00,-11.0,-18.0,-100.00,WNW,290,13.0,17.0,69,0.00,,,0.00,,2013-01-21 09:02:00,
2013-01-21 03:12:00,-11.0,-18.0,-100.00,WNW,295,14.0,17.0,69,0.00,,,0.00,,2013-01-21 09:12:00,
2013-01-21 03:22:00,-11.0,-18.0,-100.00,WNW,290,14.0,18.0,69,0.00,,,0.00,,2013-01-21 09:22:00,
2013-01-21 03:33:00,-11.0,-18.0,-100.00,WNW,290,12.0,18.0,69,0.00,,,0.00,,2013-01-21 09:33:00,
2013-01-21 03:42:00,-11.0,-18.0,-100.00,WNW,295,12.0,18.0,69,0.00,,,0.00,,2013-01-21 09:42:00,
2013-01-21 03:52:00,-12.0,-18.0,-100.00,WNW,290,12.0,17.0,70,0.00,,,0.00,,2013-01-21 09:52:00,
2013-01-21 04:02:00,-12.0,-18.0,-100.00,WNW,290,12.0,15.0,70,0.00,,,0.00,,2013-01-21 10:02:00,
2013-01-21 04:12:00,-12.0,-18.0,-100.00,WNW,290,12.0,17.0,70,0.00,,,0.00,,2013-01-21 10:12:00,
2013-01-21 04:22:00,-12.0,-18.0,-100.00,WNW,285,11.0,15.0,71,0.00,,,0.00,,2013-01-21 10:22:00,
2013-01-21 04:32:00,-12.0,-18.0,-100.00,WNW,285,13.0,16.0,71,0.00,,,0.00,,2013-01-21 10:32:00,
2013-01-21 04:42:00,-12.0,-18.0,-100.00,West,280,13.0,16.0,71,0.00,,,0.00,,2013-01-21 10:42:00,
2013-01-21 04:52:00,-12.0,-18.0,-100.00,WNW,285,15.0,18.0,71,0.00,,,0.00,,2013-01-21 10:52:00,
2013-01-21 05:02:00,-11.0,-18.0,-100.00,WNW,290,14.0,19.0,70,0.00,,,0.00,,2013-01-21 11:02:00,
2013-01-21 05:13:00,-12.0,-18.0,-100.00,WNW,295,13.0,18.0,70,0.00,,,0.00,,2013-01-21 11:13:00,
2013-01-21 05:23:00,-12.0,-18.0,-100.00,WNW,295,13.0,18.0,70,0.00,,,0.00,,2013-01-21 11:23:00,
2013-01-21 05:32:00,-12.0,-18.0,-100.00,WNW,290,12.0,16.0,71,0.00,,,0.00,,2013-01-21 11:32:00,
2013-01-21 05:42:00,-12.0,-18.0,-100.00,WNW,285,13.0,16.0,72,0.00,,,0.00,,2013-01-21 11:42:00,
2013-01-21 05:53:00,-12.0,-18.0,-100.00,WNW,300,12.0,16.0,71,0.00,,,0.00,,2013-01-21 11:53:00,
2013-01-21 06:02:00,-12.0,-18.0,-100.00,WNW,290,12.0,16.0,71,0.00,,,0.00,,2013-01-21 12:02:00,
2013-01-21 06:12:00,-12.0,-18.0,-100.00,WNW,295,11.0,16.0,71,0.00,,,0.00,,2013-01-21 12:12:00,
2013-01-21 06:22:00,-12.0,-18.0,-100.00,WNW,300,10.0,14.0,71,0.00,,,0.00,,2013-01-21 12:22:00,
2013-01-21 06:32:00,-12.0,-18.0,-100.00,WNW,295,9.0,13.0,72,0.00,,,0.00,,2013-01-21 12:32:00,
2013-01-21 06:42:00,-13.0,-18.0,-100.00,WNW,290,9.0,12.0,71,0.00,,,0.00,,2013-01-21 12:42:00,
2013-01-21 06:52:00,-12.0,-18.0,-100.00,WNW,285,10.0,14.0,72,0.00,,,0.00,,2013-01-21 12:52:00,
2013-01-21 07:02:00,-12.0,-18.0,-100.00,WNW,290,11.0,13.0,72,0.00,,,0.00,,2013-01-21 13:02:00,
2013-01-21 07:12:00,-12.0,-18.0,-100.00,WNW,285,11.0,15.0,71,0.00,,,0.00,,2013-01-21 13:12:00,
2013-01-21 07:23:00,-12.0,-18.0,-100.00,WNW,285,9.0,13.0,71,0.00,,,0.00,,2013-01-21 13:23:00,
2013-01-21 07:33:00,-12.0,-18.0,-100.00,WNW,290,9.0,15.0,71,0.00,,,0.00,,2013-01-21 13:33:00,
2013-01-21 07:42:00,-13.0,-20.0,-100.00,WNW,285,9.0,12.0,71,0.00,,,0.00,,2013-01-21 13:42:00,
2013-01-21 07:53:00,-13.0,-20.0,-100.00,WNW,285,9.0,11.0,72,0.00,,,0.00,,2013-01-21 13:53:00,
2013-01-21 08:03:00,-12.0,-18.0,-100.00,WNW,295,11.0,14.0,72,0.00,,,0.00,,2013-01-21 14:03:00,
2013-01-21 08:12:00,-12.0,-20.0,-100.00,WNW,290,11.0,16.0,70,0.00,,,0.00,,2013-01-21 14:12:00,
2013-01-21 08:23:00,-12.0,-18.0,-100.00,WNW,285,11.0,14.0,70,0.00,,,0.00,,2013-01-21 14:23:00,
2013-01-21 08:32:00,-12.0,-20.0,-100.00,WNW,285,9.0,14.0,70,0.00,,,0.00,,2013-01-21 14:32:00,
2013-01-21 08:43:00,-12.0,-18.0,-100.00,WNW,290,9.0,13.0,70,0.00,,,0.00,,2013-01-21 14:43:00,
2013-01-21 08:52:00,-12.0,-18.0,-100.00,WNW,295,9.0,12.0,70,0.00,,,0.00,,2013-01-21 14:52:00,
2013-01-21 09:03:00,-12.0,-18.0,-100.00,WNW,290,8.0,10.0,70,0.00,,,0.00,,2013-01-21 15:03:00,
2013-01-21 09:13:00,-12.0,-18.0,-100.00,WNW,285,8.0,11.0,70,0.00,,,0.00,,2013-01-21 15:13:00,
2013-01-21 09:23:00,-11.0,-18.0,-100.00,WNW,290,12.0,16.0,69,0.00,,,0.00,,2013-01-21 15:23:00,
2013-01-21 09:33:00,-11.0,-18.0,-100.00,WNW,295,12.0,16.0,68,0.00,,,0.00,,2013-01-21 15:33:00,
2013-01-21 09:43:00,-11.0,-18.0,-100.00,WNW,290,11.0,16.0,69,0.00,,,0.00,,2013-01-21 15:43:00,
2013-01-21 09:52:00,-11.0,-18.0,-100.00,WNW,295,12.0,16.0,69,0.00,,,0.00,,2013-01-21 15:52:00,
2013-01-21 10:03:00,-10.0,-18.0,-100.00,WNW,300,13.0,17.0,68,0.00,,,0.00,,2013-01-21 16:03:00,
2013-01-21 10:12:00,-10.0,-18.0,-100.00,NW,305,14.0,19.0,67,0.00,,,0.00,,2013-01-21 16:12:00,
2013-01-21 10:23:00,-10.0,-18.0,-100.00,WNW,290,16.0,22.0,66,0.00,,,0.00,,2013-01-21 16:23:00,
2013-01-21 10:33:00,-10.0,-18.0,-100.00,WNW,300,16.0,21.0,66,0.00,,,0.00,,2013-01-21 16:33:00,
2013-01-21 10:43:00,-9.0,-18.0,-100.00,WNW,290,17.0,24.0,65,0.00,,,0.00,,2013-01-21 16:43:00,
2013-01-21 10:53:00,-9.0,-17.0,-100.00,NW,305,16.0,22.0,66,0.00,,,0.00,,2013-01-21 16:53:00,
2013-01-21 11:02:00,-9.0,-17.0,-100.00,WNW,300,14.0,20.0,66,0.00,,,0.00,,2013-01-21 17:02:00,
2013-01-21 11:12:00,-9.0,-18.0,-100.00,WNW,295,19.0,24.0,65,0.00,,,0.00,,2013-01-21 17:12:00,
2013-01-21 11:22:00,-8.0,-17.0,-100.00,WNW,295,17.0,24.0,67,0.00,,,0.00,,2013-01-21 17:22:00,
2013-01-21 11:33:00,-8.0,-17.0,-100.00,WNW,290,15.0,22.0,67,0.00,,,0.00,,2013-01-21 17:33:00,
2013-01-21 11:42:00,-8.0,-17.0,-100.00,WNW,295,16.0,21.0,67,0.00,,,0.00,,2013-01-21 17:42:00,
2013-01-21 11:52:00,-8.0,-17.0,-100.00,WNW,295,16.0,21.0,67,0.00,,,0.00,,2013-01-21 17:52:00,
2013-01-21 12:03:00,-8.0,-15.0,-100.00,WNW,295,17.0,24.0,67,0.00,,,0.00,,2013-01-21 18:03:00,
2013-01-21 12:12:00,-7.0,-15.0,-100.00,WNW,285,14.0,22.0,68,0.00,,,0.00,,2013-01-21 18:12:00,
2013-01-21 12:22:00,-7.0,-15.0,-100.00,WNW,295,17.0,21.0,69,0.00,,,0.00,,2013-01-21 18:22:00,
2013-01-21 12:33:00,-7.0,-15.0,-100.00,WNW,300,17.0,21.0,70,0.00,,,0.00,,2013-01-21 18:33:00,
2013-01-21 12:42:00,-7.0,-15.0,-100.00,WNW,295,16.0,24.0,68,0.00,,,0.00,,2013-01-21 18:42:00,
2013-01-21 12:52:00,-6.0,-15.0,-100.00,WNW,295,15.0,21.0,68,0.00,,,0.00,,2013-01-21 18:52:00,
2013-01-21 13:03:00,-6.0,-13.0,-100.00,WNW,300,18.0,23.0,69,0.00,,,0.00,,2013-01-21 19:03:00,
2013-01-21 13:12:00,-5.0,-13.0,-100.00,NW,305,14.0,22.0,71,0.00,,,0.00,,2013-01-21 19:12:00,
2013-01-21 13:22:00,-6.0,-13.0,-100.00,WNW,290,14.0,19.0,69,0.00,,,0.00,,2013-01-21 19:22:00,
2013-01-21 13:33:00,-5.0,-13.0,-100.00,WNW,285,17.0,21.0,68,0.00,,,0.00,,2013-01-21 19:33:00,
2013-01-21 13:42:00,-5.0,-13.0,-100.00,West,280,19.0,22.0,69,0.00,,,0.00,,2013-01-21 19:42:00,
2013-01-21 13:52:00,-5.0,-13.0,-100.00,West,280,17.0,21.0,67,0.00,,,0.00,,2013-01-21 19:52:00,
2013-01-21 14:03:00,-4.0,-11.0,-100.00,WNW,285,13.0,20.0,68,0.00,,,0.00,,2013-01-21 20:03:00,
2013-01-21 14:12:00,-5.0,-13.0,-100.00,WNW,300,14.0,21.0,67,0.00,,,0.00,,2013-01-21 20:12:00,
2013-01-21 14:22:00,-5.0,-13.0,-100.00,WNW,300,15.0,19.0,67,0.00,,,0.00,,2013-01-21 20:22:00,
2013-01-21 14:33:00,-4.0,-11.0,-100.00,WNW,285,13.0,19.0,68,0.00,,,0.00,,2013-01-21 20:33:00,
2013-01-21 14:43:00,-4.0,-11.0,-100.00,WNW,300,16.0,19.0,69,0.00,,,0.00,,2013-01-21 20:43:00,
2013-01-21 14:53:00,-3.0,-11.0,-100.00,WNW,300,14.0,19.0,67,0.00,,,0.00,,2013-01-21 20:53:00,
2013-01-21 15:03:00,-3.0,-11.0,-100.00,WNW,295,14.0,19.0,67,0.00,,,0.00,,2013-01-21 21:03:00,
2013-01-21 15:12:00,-3.0,-11.0,-100.00,WNW,285,13.0,19.0,68,0.00,,,0.00,,2013-01-21 21:12:00,
2013-01-21 15:22:00,-3.0,-11.0,-100.00,WNW,290,11.0,17.0,67,0.00,,,0.00,,2013-01-21 21:22:00,
2013-01-21 15:33:00,-2.0,-9.0,-100.00,WNW,285,11.0,17.0,68,0.00,,,0.00,,2013-01-21 21:33:00,
2013-01-21 15:43:00,-2.0,-9.0,-100.00,West,280,12.0,15.0,70,0.00,,,0.00,,2013-01-21 21:43:00,
2013-01-21 15:53:00,-2.0,-11.0,-100.00,WNW,290,12.0,17.0,67,0.00,,,0.00,,2013-01-21 21:53:00,
2013-01-21 16:03:00,-2.0,-9.0,-100.00,WNW,290,11.0,16.0,67,0.00,,,0.00,,2013-01-21 22:03:00,
2013-01-21 16:12:00,-2.0,-9.0,-100.00,WNW,285,12.0,15.0,67,0.00,,,0.00,,2013-01-21 22:12:00,
2013-01-21 16:23:00,-2.0,-9.0,-100.00,WNW,285,11.0,14.0,67,0.00,,,0.00,,2013-01-21 22:23:00,
2013-01-21 16:33:00,-2.0,-9.0,-100.00,WNW,290,10.0,14.0,68,0.00,,,0.00,,2013-01-21 22:33:00,
2013-01-21 16:42:00,-2.0,-9.0,-100.00,WNW,295,9.0,14.0,68,0.00,,,0.00,,2013-01-21 22:42:00,
2013-01-21 16:52:00,-2.0,-9.0,-100.00,WNW,285,11.0,13.0,70,0.00,,,0.00,,2013-01-21 22:52:00,
2013-01-21 17:03:00,-2.0,-9.0,-100.00,WNW,295,9.0,12.0,69,0.00,,,0.00,,2013-01-21 23:03:00,
2013-01-21 17:12:00,-2.0,-9.0,-100.00,WNW,285,10.0,12.0,69,0.00,,,0.00,,2013-01-21 23:12:00,
2013-01-21 17:22:00,-4.0,-11.0,-100.00,West,275,8.0,10.0,72,0.00,,,0.00,,2013-01-21 23:22:00,
2013-01-21 17:33:00,-3.0,-9.0,-100.00,West,265,7.0,9.0,74,0.00,,,0.00,,2013-01-21 23:33:00,
2013-01-21 17:42:00,-5.0,-9.0,-100.00,West,270,9.0,9.0,76,0.00,,,0.00,,2013-01-21 23:42:00,
2013-01-21 17:52:00,-5.0,-9.0,-100.00,West,265,9.0,9.0,78,0.00,,,0.00,,2013-01-21 23:52:00,
2013-01-21 18:02:00,-4.0,-9.0,-100.00,West,260,9.0,11.0,75,0.00,,,0.00,,2013-01-22 00:02:00,
2013-01-21 18:12:00,-3.0,-9.0,-100.00,WSW,255,9.0,11.0,73,0.00,,,0.00,,2013-01-22 00:12:00,
2013-01-21 18:22:00,-4.0,-11.0,-100.00,WSW,255,9.0,10.0,75,0.00,,,0.00,,2013-01-22 00:22:00,
2013-01-21 18:32:00,-5.0,-11.0,-100.00,WSW,255,9.0,11.0,75,0.00,,,0.00,,2013-01-22 00:32:00,
2013-01-21 18:42:00,-5.0,-9.0,-100.00,WSW,255,9.0,11.0,76,0.00,,,0.00,,2013-01-22 00:42:00,
2013-01-21 18:53:00,-5.0,-11.0,-100.00,WSW,250,9.0,11.0,76,0.00,,,0.00,,2013-01-22 00:53:00,
2013-01-21 19:02:00,-5.0,-11.0,-100.00,WSW,250,6.0,9.0,77,0.00,,,0.00,,2013-01-22 01:02:00,
2013-01-21 19:12:00,-6.0,-11.0,-100.00,WSW,245,6.0,7.0,76,0.00,,,0.00,,2013-01-22 01:12:00,
2013-01-21 19:23:00,-6.0,-11.0,-100.00,WSW,250,7.0,7.0,78,0.00,,,0.00,,2013-01-22 01:23:00,
2013-01-21 19:32:00,-7.0,-11.0,-100.00,WSW,245,7.0,8.0,79,0.00,,,0.00,,2013-01-22 01:32:00,
2013-01-21 19:42:00,-7.0,-11.0,-100.00,WSW,245,7.0,9.0,79,0.00,,,0.00,,2013-01-22 01:42:00,
2013-01-21 19:52:00,-7.0,-11.0,-100.00,WSW,250,7.0,9.0,80,0.00,,,0.00,,2013-01-22 01:52:00,
2013-01-21 20:02:00,-6.0,-11.0,-100.00,WSW,250,9.0,10.0,81,0.00,,,0.00,,2013-01-22 02:02:00,
2013-01-21 20:12:00,-6.0,-11.0,-100.00,WSW,255,9.0,11.0,80,0.00,,,0.00,,2013-01-22 02:12:00,
2013-01-21 20:22:00,-6.0,-11.0,-100.00,West,260,9.0,10.0,80,0.00,,,0.00,,2013-01-22 02:22:00,
2013-01-21 20:32:00,-6.0,-11.0,-100.00,West,265,7.0,9.0,80,0.00,,,0.00,,2013-01-22 02:32:00,
2013-01-21 20:42:00,-6.0,-11.0,-100.00,West,260,7.0,9.0,80,0.00,,,0.00,,2013-01-22 02:42:00,
2013-01-21 20:53:00,-6.0,-11.0,-100.00,West,260,9.0,10.0,79,0.00,,,0.00,,2013-01-22 02:53:00,
2013-01-21 21:02:00,-7.0,-11.0,-100.00,West,260,7.0,9.0,80,0.00,,,0.00,,2013-01-22 03:02:00,
2013-01-21 21:12:00,-6.0,-9.0,-100.00,West,260,8.0,9.0,82,0.00,,,0.00,,2013-01-22 03:12:00,
2013-01-21 21:22:00,-7.0,-11.0,-100.00,West,270,6.0,9.0,81,0.00,,,0.00,,2013-01-22 03:22:00,
2013-01-21 21:32:00,-7.0,-11.0,-100.00,West,275,9.0,10.0,81,0.00,,,0.00,,2013-01-22 03:32:00,
2013-01-21 21:42:00,-9.0,-13.0,-100.00,West,270,10.0,11.0,81,0.00,,,0.00,,2013-01-22 03:42:00,
2013-01-21 21:52:00,-9.0,-13.0,-100.00,West,275,10.0,11.0,81,0.00,,,0.00,,2013-01-22 03:52:00,
2013-01-21 22:02:00,-9.0,-13.0,-100.00,West,275,9.0,10.0,81,0.00,,,0.00,,2013-01-22 04:02:00,
2013-01-21 22:12:00,-9.0,-13.0,-100.00,West,280,7.0,9.0,82,0.00,,,0.00,,2013-01-22 04:12:00,
2013-01-21 22:22:00,-9.0,-13.0,-100.00,WNW,300,6.0,9.0,80,0.00,,,0.00,,2013-01-22 04:22:00,
2013-01-21 22:32:00,-9.0,-13.0,-100.00,WNW,300,7.0,10.0,80,0.00,,,0.00,,2013-01-22 04:32:00,
2013-01-21 22:42:00,-9.0,-13.0,-100.00,NW,310,9.0,10.0,81,0.00,,,0.00,,2013-01-22 04:42:00,
2013-01-21 22:52:00,-10.0,-15.0,-100.00,WNW,300,7.0,9.0,81,0.00,,,0.00,,2013-01-22 04:52:00,
2013-01-21 23:03:00,-10.0,-13.0,-100.00,WNW,300,7.0,9.0,82,0.00,,,0.00,,2013-01-22 05:03:00,
2013-01-21 23:12:00,-10.0,-13.0,-100.00,WNW,300,7.0,9.0,82,0.00,,,0.00,,2013-01-22 05:12:00,
2013-01-21 23:22:00,-10.0,-13.0,-100.00,WNW,295,7.0,9.0,82,0.00,,,0.00,,2013-01-22 05:22:00,
2013-01-21 23:32:00,-9.0,-13.0,-100.00,WNW,285,6.0,9.0,81,0.00,,,0.00,,2013-01-22 05:32:00,
2013-01-21 23:42:00,-9.0,-13.0,-100.00,WNW,285,7.0,9.0,78,0.00,,,0.00,,2013-01-22 05:42:00,
2013-01-21 23:52:00,-7.0,-13.0,-100.00,WNW,300,9.0,11.0,78,0.00,,,0.00,,2013-01-22 05:52:00,